Weather History for Elkins, WV

Change the Weather History Date:

Friday, February 15, 2013

  Actual Average Record
Temperature  
Mean Temperature 34 °F 32 °F  
Max Temperature 40 °F 43 °F 71 °F (1990)
Min Temperature 27 °F 21 °F -12 °F (1899)
Degree Days  
Heating Degree Days 31 33  
Month to date heating degree days 527 511  
Since 1 July heating degree days 3780 3912  
Cooling Degree Days 0 0  
Month to date cooling degree days 0 0  
Year to date cooling degree days 0 0  
Moisture  
Dew Point 29 °F    
Average Humidity 81    
Maximum Humidity 92    
Minimum Humidity 70    
Precipitation  
Precipitation 0.14 in 0.11 in 0.95 in (1903)
Month to date precipitation 1.38 1.61  
Year to date precipitation 5.89 4.84  
Snow  
Snow 0.00 in - - ()
Month to date snowfall 13.2  
Since 1 September snowfall 51.3  
Snow Depth 0.00 in    
Sea Level Pressure  
Sea Level Pressure 30.02 in    
Wind  
Wind Speed 3 mph (WNW)    
Max Wind Speed 14 mph    
Max Gust Speed 18 mph    
Visibility 6 miles    
Events Fog , Snow    
T = Trace of Precipitation, MM = Missing Value Source: NWS Daily Summary

Daily Weather History Graph

Daily Weather History Graph

Search for Another Location

Airport:

Trip Planner

Search our weather history database for the weather conditions in past years. The results will help you decide how hot, cold, wet, or windy it might be!

Date:

Astronomy

Feb. 15, 2013 Rise Set
Actual Time 7:10 AM EST 5:57 PM EST
Civil Twilight 6:43 AM EST 6:24 PM EST
Nautical Twilight 6:11 AM EST 6:55 PM EST
Astronomical Twilight 5:40 AM EST 7:26 PM EST
Moon 9:49 AM EST (2/15) 11:52 PM EST (2/15)
Length of Visible Light 11h 41m
Length of Day
10h 46m
Waxing Crescent, 30% of the Moon is Illuminated
Feb 15
Waxing Crescent
Feb 17
First Quarter
Feb 25
Full
Mar 4
Last Quarter
Mar 11
New

Hourly Weather History & Observations

Time (EST) Temp. Windchill Dew Point Humidity Pressure Visibility Wind Dir Wind Speed Gust Speed Precip Events Conditions
12:51 AM 28.9 °F - 25.0 °F 85% 30.01 in 10.0 mi Calm Calm - 0.00 in   Partly Cloudy
1:51 AM 30.0 °F - 27.0 °F 88% 30.00 in 9.0 mi Calm Calm - N/A   Scattered Clouds
2:51 AM 32.0 °F - 28.0 °F 85% 30.01 in 10.0 mi Calm Calm - N/A   Mostly Cloudy
3:51 AM 37.9 °F 34.4 °F 28.9 °F 70% 30.01 in 10.0 mi Variable 4.6 mph - N/A   Overcast
4:51 AM 37.9 °F - 28.9 °F 70% 30.01 in 10.0 mi Calm Calm - N/A   Overcast
5:51 AM 34.0 °F 31.0 °F 28.0 °F 79% 30.04 in 10.0 mi North 3.5 mph - N/A   Mostly Cloudy
6:03 AM 33.8 °F - 28.4 °F 81% 29.98 in 10.0 mi Calm Calm - N/A   Mostly Cloudy
6:21 AM 30.2 °F - 26.6 °F 86% 29.99 in 10.0 mi Calm Calm - N/A   Scattered Clouds
6:51 AM 28.0 °F - 26.1 °F 92% 30.06 in 10.0 mi Calm Calm - N/A   Scattered Clouds
7:51 AM 30.9 °F - 28.0 °F 89% 30.08 in 10.0 mi Calm Calm - N/A   Mostly Cloudy
8:30 AM 33.8 °F - 28.4 °F 81% 30.02 in 8.0 mi Calm Calm - N/A   Overcast
8:51 AM 33.1 °F 30.0 °F 28.9 °F 85% 30.09 in 9.0 mi WSW 3.5 mph - N/A   Overcast
9:14 AM 33.8 °F - 28.4 °F 81% 30.03 in 8.0 mi Calm Calm - N/A   Overcast
9:51 AM 35.1 °F - 30.0 °F 82% 30.08 in 9.0 mi Calm Calm - 0.00 in   Overcast
10:23 AM 37.4 °F 33.8 °F 32.0 °F 81% 30.00 in 10.0 mi WNW 4.6 mph - N/A   Mostly Cloudy
10:48 AM 39.2 °F - 30.2 °F 70% 30.00 in 10.0 mi Calm Calm - N/A   Overcast
10:51 AM 39.0 °F 35.7 °F 32.0 °F 76% 30.06 in 10.0 mi NNW 4.6 mph - N/A   Overcast
11:51 AM 35.1 °F 28.6 °F 30.0 °F 82% 30.07 in 6.0 mi NNW 8.1 mph - 0.00 in Snow Light Snow
12:12 PM 33.8 °F 29.6 °F 30.2 °F 87% 30.00 in 3.0 mi Variable 4.6 mph - 0.00 in Snow Light Snow
12:19 PM 33.8 °F 28.6 °F 30.2 °F 87% 30.00 in 5.0 mi NNW 5.8 mph - 0.00 in Snow Light Snow
12:51 PM 34.0 °F 26.6 °F 28.0 °F 79% 30.07 in 2.0 mi NW 9.2 mph - 0.00 in Snow Light Snow
12:59 PM 33.8 °F 29.6 °F 28.4 °F 81% 30.00 in 1.0 mi NNW 4.6 mph - 0.00 in Snow Light Snow
1:22 PM 33.8 °F - 28.4 °F 81% 29.99 in 1.2 mi Calm Calm - 0.01 in Snow Light Snow
1:40 PM 33.8 °F - 28.4 °F 81% 29.99 in 2.5 mi Calm Calm - 0.02 in Snow Light Snow
1:46 PM 33.8 °F - 28.4 °F 81% 29.99 in 1.0 mi Calm Calm - 0.02 in Snow Light Snow
1:51 PM 33.1 °F - 30.0 °F 89% 30.06 in 0.8 mi Calm Calm - 0.03 in Snow Light Snow
1:59 PM 33.8 °F - 30.2 °F 87% 29.99 in 1.0 mi Calm Calm - 0.00 in Snow Light Snow
2:28 PM 33.8 °F - 30.2 °F 87% 29.98 in 0.5 mi Calm Calm - 0.02 in Fog , Snow Snow
2:43 PM 33.8 °F - 30.2 °F 87% 29.97 in 1.8 mi Calm Calm - 0.02 in Snow Light Snow
2:51 PM 33.1 °F - 30.9 °F 92% 30.04 in 2.0 mi Calm Calm - 0.02 in Snow Light Snow
3:01 PM 33.8 °F - 30.2 °F 87% 29.97 in 2.0 mi Calm Calm - 0.00 in Snow Light Snow
3:05 PM 33.8 °F - 30.2 °F 87% 29.97 in 1.2 mi Calm Calm - 0.00 in Snow Light Snow
3:32 PM 33.8 °F - 30.2 °F 87% 29.97 in 0.5 mi Calm Calm - 0.01 in Fog , Snow Snow
3:48 PM 33.8 °F - 30.2 °F 87% 29.97 in 0.5 mi Calm Calm - 0.02 in Fog , Snow Snow
3:51 PM 33.1 °F - 30.9 °F 92% 30.03 in 0.5 mi Calm Calm - 0.02 in Fog , Snow Snow
4:07 PM 33.8 °F - 30.2 °F 87% 29.98 in 0.8 mi Calm Calm - 0.01 in Snow Light Snow
4:51 PM 33.1 °F - 30.9 °F 92% 30.04 in 0.5 mi Calm Calm - 0.03 in Fog , Snow Snow
5:16 PM 33.8 °F - 30.2 °F 87% 29.98 in 0.5 mi Calm Calm - 0.02 in Fog , Snow Snow
5:31 PM 33.8 °F - 30.2 °F 87% 29.98 in 1.0 mi Calm Calm - 0.02 in Snow Light Snow
5:51 PM 33.1 °F - 30.9 °F 92% 30.06 in 1.2 mi Calm Calm - 0.02 in Snow Light Snow
6:01 PM 33.8 °F - 30.2 °F 87% 29.99 in 1.5 mi Calm Calm - 0.01 in Snow Light Snow
6:09 PM 33.8 °F - 30.2 °F 87% 29.99 in 1.8 mi Calm Calm - 0.01 in Snow Light Snow
6:23 PM 33.8 °F - 28.4 °F 81% 29.99 in 2.5 mi Calm Calm - 0.01 in Snow Light Snow
6:51 PM 32.0 °F - 30.0 °F 92% 30.07 in 4.0 mi Calm Calm - 0.01 in Snow Light Snow
7:34 PM 32.0 °F - 30.2 °F 93% 30.00 in 7.0 mi Calm Calm - 0.00 in   Overcast
7:42 PM 32.0 °F - 30.2 °F 93% 30.00 in 9.0 mi Calm Calm - 0.00 in   Overcast
7:51 PM 32.0 °F - 30.0 °F 92% 30.07 in 8.0 mi Calm Calm - 0.00 in   Overcast
7:58 PM 32.0 °F 28.7 °F 28.4 °F 87% 30.00 in 8.0 mi Variable 3.5 mph - N/A   Overcast
8:51 PM 32.0 °F 24.2 °F 27.0 °F 82% 30.07 in 10.0 mi WSW 9.2 mph - N/A   Overcast
9:18 PM 32.0 °F 27.5 °F 26.6 °F 80% 30.00 in 10.0 mi WSW 4.6 mph - N/A   Overcast
9:26 PM 32.0 °F - 26.6 °F 80% 30.00 in 10.0 mi Calm Calm - N/A   Overcast
9:51 PM 32.0 °F 25.6 °F 26.1 °F 79% 30.07 in 10.0 mi West 6.9 mph - N/A   Overcast
10:41 PM 32.0 °F 23.6 °F 26.6 °F 80% 30.00 in 2.5 mi West 10.4 mph - 0.01 in Snow Light Snow
10:51 PM 30.9 °F 21.2 °F 26.1 °F 82% 30.06 in 6.0 mi WNW 12.7 mph 18.4 mph 0.01 in Snow Light Snow
11:51 PM 30.0 °F 23.2 °F 23.0 °F 75% 30.07 in 10.0 mi WNW 6.9 mph - 0.00 in   Overcast